Dunnsville, VA

2:29 AM EDT on August 25, 2016 (GMT -0400)
Tappahannock

Weather History for KXSA - October, 2012

Change the Weather History Date:

Monday, October 15, 2012

  Actual Average (KRIC) Record (KRIC)
Temperature  
Mean Temperature 64 °F 60 °F  
Max Temperature 71 °F 71 °F 90 °F (1985)
Min Temperature 56 °F 48 °F 31 °F (1934)
Degree Days  
Heating Degree Days 2 6  
Month to date heating degree days 69  
Since 1 July heating degree days 98  
Cooling Degree Days 0 1  
Month to date cooling degree days 28  
Year to date cooling degree days 1532  
Growing Degree Days 14 (Base 50)    
Moisture  
Dew Point 61 °F    
Average Humidity 89    
Maximum Humidity 100    
Minimum Humidity 73    
Precipitation  
Precipitation 0.00 in 0.09 in 1.15 in (1954)
Month to date precipitation 1.45  
Year to date precipitation 35.57  
Snow  
Snow 0.00 in 0.00 in 0.00 in (2002)
Month to date snowfall 0.0  
Since 1 July snowfall 0.0  
Snow Depth -    
Sea Level Pressure  
Sea Level Pressure 29.81 in    
Wind  
Wind Speed 6 mph (SSW)    
Max Wind Speed 13 mph    
Max Gust Speed 25 mph    
Visibility 10 miles    
Events Rain    
T = Trace of Precipitation, MM = Missing Value Source: NWS Daily Summary

Daily Weather History Graph

Daily Weather History Graph

Search for Another Location

Airport or City:

Trip Planner

Search our weather history database for the weather conditions in past years. The results will help you decide how hot, cold, wet, or windy it might be!

Date:

Astronomy

Oct. 15, 2012 Rise Set
Actual Time 7:16 AM EDT 6:29 PM EDT
Civil Twilight 6:50 AM EDT 6:55 PM EDT
Nautical Twilight 6:19 AM EDT 7:26 PM EDT
Astronomical Twilight 5:49 AM EDT 7:56 PM EDT
Moon 7:23 AM EDT (10/15) 6:29 PM EDT (10/15)
Length of Visible Light 12h 05m
Length of Day
11h 12m
New Moon, 0% of the Moon is Illuminated
Oct 15
New Moon
Oct 21
First Quarter
Oct 29
Full
Nov 6
Last Quarter
Nov 13
New

Hourly Weather History & Observations

Time (EDT) Temp. Dew Point Humidity Pressure Visibility Wind Dir Wind Speed Gust Speed Precip Events Conditions
12:15 AM 64.0 °F 58.1 °F 81% 29.98 in 10.0 mi South 5.8 mph - N/A   Clear
12:35 AM 63.7 °F 58.3 °F 83% 29.98 in 10.0 mi South 4.6 mph - N/A   Clear
1:15 AM 64.8 °F 59.2 °F 82% 29.97 in 10.0 mi South 5.8 mph - N/A   Overcast
1:35 AM 65.1 °F 59.5 °F 82% 29.96 in 10.0 mi South 6.9 mph - N/A   Overcast
1:55 AM 65.5 °F 59.9 °F 82% 29.96 in 10.0 mi South 8.1 mph - N/A   Overcast
2:15 AM 65.7 °F 60.1 °F 82% 29.95 in 10.0 mi South 8.1 mph - N/A   Scattered Clouds
2:35 AM 65.7 °F 60.1 °F 82% 29.93 in 10.0 mi South 8.1 mph - N/A   Clear
2:55 AM 65.7 °F 60.1 °F 82% 29.92 in 10.0 mi South 8.1 mph - N/A   Clear
3:15 AM 65.3 °F 60.1 °F 83% 29.91 in 10.0 mi South 8.1 mph - N/A   Clear
3:35 AM 64.9 °F 59.9 °F 84% 29.91 in 10.0 mi South 8.1 mph - N/A   Clear
3:55 AM 64.9 °F 60.1 °F 84% 29.90 in 10.0 mi South 5.8 mph - N/A   Clear
4:15 AM 64.8 °F 60.1 °F 85% 29.90 in 10.0 mi SSW 6.9 mph - N/A   Clear
4:35 AM 65.1 °F 59.9 °F 83% 29.89 in 10.0 mi SSW 8.1 mph - N/A   Clear
4:55 AM 64.8 °F 59.9 °F 84% 29.88 in 10.0 mi South 6.9 mph - N/A   Clear
5:15 AM 64.9 °F 59.9 °F 84% 29.88 in 10.0 mi SSW 6.9 mph - N/A   Clear
5:55 AM 64.4 °F 59.5 °F 84% 29.88 in 10.0 mi South 5.8 mph - N/A   Clear
6:15 AM 64.2 °F 59.4 °F 84% 29.87 in 10.0 mi South 6.9 mph - N/A   Clear
6:35 AM 63.7 °F 59.2 °F 85% 29.86 in 10.0 mi South 4.6 mph - N/A   Clear
6:55 AM 64.4 °F 59.4 °F 84% 29.86 in 10.0 mi South 4.6 mph - N/A   Clear
7:15 AM 64.6 °F 59.4 °F 83% 29.86 in 10.0 mi SSW 3.5 mph - N/A   Clear
7:35 AM 64.4 °F 59.4 °F 84% 29.86 in 10.0 mi South 5.8 mph - N/A   Clear
8:15 AM 64.9 °F 59.9 °F 84% 29.85 in 10.0 mi South 5.8 mph - N/A   Clear
8:35 AM 65.3 °F 59.9 °F 83% 29.86 in 10.0 mi South 5.8 mph - N/A   Clear
8:55 AM 66.2 °F 60.3 °F 81% 29.86 in 10.0 mi South 9.2 mph - N/A   Scattered Clouds
9:35 AM 70.2 °F 61.0 °F 73% 29.84 in 10.0 mi South 6.9 mph 17.3 mph N/A   Clear
9:55 AM 70.2 °F 61.7 °F 74% 29.83 in 10.0 mi South 12.7 mph 21.9 mph N/A   Clear
10:15 AM 70.3 °F 62.1 °F 75% 29.84 in 10.0 mi SSW 9.2 mph 17.3 mph N/A   Scattered Clouds
10:35 AM 71.1 °F 62.8 °F 75% 29.83 in 10.0 mi South 9.2 mph 18.4 mph N/A   Clear
10:55 AM 71.2 °F 62.6 °F 74% 29.83 in 10.0 mi South 11.5 mph 20.7 mph N/A   Scattered Clouds
11:15 AM 70.9 °F 63.1 °F 76% 29.81 in 10.0 mi SSW 8.1 mph 18.4 mph N/A Rain Light Rain
11:35 AM 69.6 °F 62.6 °F 78% 29.81 in 10.0 mi SSW 8.1 mph 17.3 mph N/A   Mostly Cloudy
11:55 AM 68.9 °F 62.6 °F 80% 29.80 in 10.0 mi South 6.9 mph - N/A   Overcast
12:35 PM 70.7 °F 62.4 °F 75% 29.80 in 10.0 mi SW 10.4 mph 18.4 mph N/A   Mostly Cloudy
12:55 PM 70.7 °F 62.6 °F 75% 29.79 in 10.0 mi SSW 8.1 mph 16.1 mph N/A Rain Light Rain
1:15 PM 68.4 °F 62.2 °F 81% 29.79 in 10.0 mi SSW 12.7 mph 17.3 mph N/A Rain Light Rain
1:35 PM 65.7 °F 62.6 °F 90% 29.78 in 7.0 mi South 6.9 mph 17.3 mph N/A Rain Rain
2:15 PM 65.3 °F 64.4 °F 97% 29.76 in 10.0 mi SSW 5.8 mph - N/A   Light Drizzle
2:35 PM 65.3 °F 64.4 °F 97% 29.74 in 10.0 mi SSW 4.6 mph - N/A Rain Rain
2:55 PM 65.3 °F 64.6 °F 98% 29.73 in 10.0 mi South 4.6 mph - N/A Rain Light Rain
3:15 PM 66.2 °F 65.5 °F 98% 29.72 in 10.0 mi South 4.6 mph - N/A   Scattered Clouds
3:35 PM 65.8 °F 65.3 °F 98% 29.72 in 10.0 mi SSW 8.1 mph - N/A   Scattered Clouds
3:55 PM 65.5 °F 64.9 °F 98% 29.72 in 10.0 mi SSW 5.8 mph - N/A   Mostly Cloudy
4:15 PM 64.9 °F 64.9 °F 100% 29.73 in 10.0 mi SSW 4.6 mph - N/A Rain Rain
4:35 PM 64.6 °F 64.6 °F 100% 29.71 in 5.0 mi Calm Calm - N/A Rain Light Rain
4:55 PM 64.6 °F 64.6 °F 100% 29.70 in 7.0 mi South 3.5 mph - N/A Rain Light Rain
5:15 PM 65.3 °F 65.3 °F 100% 29.69 in 10.0 mi South 5.8 mph - N/A   Light Drizzle
5:35 PM 64.9 °F 64.9 °F 100% 29.69 in 10.0 mi Calm Calm - N/A   Scattered Clouds
5:55 PM 65.1 °F 65.1 °F 100% 29.68 in 10.0 mi South 3.5 mph - N/A   Mostly Cloudy
6:15 PM 64.9 °F 64.9 °F 100% 29.69 in 10.0 mi South 3.5 mph - N/A   Overcast
6:35 PM 64.9 °F 64.9 °F 100% 29.69 in 10.0 mi South 4.6 mph - N/A   Overcast
7:15 PM 64.4 °F 64.4 °F 100% 29.70 in 10.0 mi SSW 3.5 mph - N/A   Mostly Cloudy
7:35 PM 64.4 °F 64.4 °F 100% 29.70 in 10.0 mi SSW 3.5 mph - N/A   Overcast
7:55 PM 64.0 °F 64.0 °F 100% 29.69 in 10.0 mi Calm Calm - N/A   Mostly Cloudy
8:15 PM 63.9 °F 63.9 °F 100% 29.70 in 10.0 mi Calm Calm - N/A   Overcast
8:35 PM 64.2 °F 64.2 °F 100% 29.73 in 10.0 mi West 12.7 mph 21.9 mph N/A   Overcast
8:55 PM 61.0 °F 58.3 °F 91% 29.76 in 10.0 mi NNW 12.7 mph 25.3 mph N/A Rain Rain
9:15 PM 58.3 °F 58.3 °F 100% 29.76 in 7.0 mi North 3.5 mph - N/A Rain Rain
9:35 PM 58.1 °F 58.1 °F 100% 29.77 in 10.0 mi Calm Calm - N/A Rain Rain
9:55 PM 57.7 °F 57.7 °F 100% 29.76 in 10.0 mi North 3.5 mph - N/A   Mostly Cloudy
10:15 PM 57.6 °F 57.6 °F 100% 29.77 in 10.0 mi Calm Calm - N/A   Scattered Clouds
10:35 PM 57.2 °F 57.2 °F 100% 29.78 in 10.0 mi Calm Calm - N/A   Clear
10:55 PM 57.0 °F 57.0 °F 100% 29.80 in 10.0 mi Calm Calm - N/A   Clear
11:15 PM 56.8 °F 56.8 °F 100% 29.81 in 10.0 mi NNW 5.8 mph - N/A   Clear
11:35 PM 57.2 °F 55.0 °F 92% 29.81 in 10.0 mi NW 5.8 mph - N/A   Clear
11:55 PM 56.3 °F 53.4 °F 90% 29.81 in 10.0 mi NW 5.8 mph - N/A   Clear